Regional Weather Roundup
Issued by NWS

Home | Current Version | Previous Version | Text Only | Print | Product List | Glossary On
Versions: 1 2 3 4 5 6 7 8 9 10 11 12 13 14 15 16 17 18 19 20 21 22 23 24 25 26 27 28 29 30 31 32 33 34 35 36 37 38 39 40 41 42 43 44 45 46 47 48 49 50
475
ASUS44 KJAN 200010
RWRMS

MISSISSIPPI HOURLY WEATHER ROUNDUP
NATIONAL WEATHER SERVICE JACKSON MS
700 PM CDT THU OCT 19 2017

NOTE: "FAIR: INDICATES FEW OR NO CLOUDS BELOW 12,000 FEET WITH NO
SIGNIFICANT WEATHER AND/OR OBSTRUCTIONS TO VISIBILITY.

MSZ001>002-007>008-010>013-018>021-025>028-034>036-200100-
NORTHWEST MISSISSIPPI

CITY           SKY/WX    TMP DP  RH WIND       PRES   REMARKS
BATESVILLE     FAIR      58  55  87 CALM      30.21R
CLARKSDALE       N/A     66  54  63 CALM      30.19R
CLEVELAND      FAIR      68  51  54 E5        30.18R
GREENWOOD      PTCLDY    63  56  78 CALM      30.18R
6HR MIN TEMP:  63; 6HR MAX TEMP:  80;

GREENVILLE     CLEAR     63  49  60 S7        30.16R
6HR MIN TEMP:  63; 6HR MAX TEMP:  80;

OLIVE BRANCH   MOCLDY   N/A N/A N/A CALM      30.18S
OXFORD         FAIR      59  55  88 CALM      30.21S
TUNICA           N/A    N/A N/A N/A SE3       30.20S
WINONA         FAIR      65  55  70 CALM      30.20R
$$

MSZ003>006-009-014>017-022>024-029>033-037>039-200100-
NORTHEAST MISSISSIPPI

CITY           SKY/WX    TMP DP  RH WIND       PRES   REMARKS
COLUMBUS AFB   CLEAR     62  57  84 CALM      30.20R
6HR MIN TEMP:  62; 6HR MAX TEMP:  78;

CORINTH        FAIR      61  55  82 CALM      30.21S
GOLDN TRIANGLE CLEAR     66  54  65 E3        30.21R
STARKVILLE     FAIR      61  55  82 CALM      30.22R
TUPELO         CLEAR     65  50  58 CALM      30.21S
6HR MIN TEMP:  65; 6HR MAX TEMP:  77;

$$

MSZ040-058-200100-
CENTRAL MISSISSIPPI

CITY           SKY/WX    TMP DP  RH WIND       PRES   REMARKS
JACKSON INTL   CLOUDY    67  58  72 CALM      30.17R
6HR MIN TEMP:  67; 6HR MAX TEMP:  82;

JACKSON HAWKNS CLOUDY    67  60  78 CALM      30.17S
6HR MIN TEMP:  67; 6HR MAX TEMP:  79;

MADISON        FAIR      63  59  88 CALM      30.17R
MERIDIAN KEY   CLOUDY    66  60  81 CALM      30.19R
6HR MIN TEMP:  66; 6HR MAX TEMP:  81;

MERIDIAN NAS   CLOUDY    68  59  73 E3        30.20R
6HR MIN TEMP:  68; 6HR MAX TEMP:  81;

RAYMOND        FAIR      64  61  88 CALM      30.16R
VICKSBURG VKS  CLEAR     66  61  82 CALM      30.17R
$$

MSZ059>079-200100-
SOUTH MISSISSIPPI

CITY           SKY/WX    TMP DP  RH WIND       PRES   REMARKS
HATTIESBURG    CLEAR     69  64  84 CALM      30.17R
6HR MIN TEMP:  69; 6HR MAX TEMP:  82;

LAUREL         FAIR      69  59  70 E5        30.18R
MCCOMB         CLOUDY    71  62  73 CALM      30.15R
6HR MIN TEMP:  71; 6HR MAX TEMP:  81;

NATCHEZ        CLEAR     70  62  76 CALM      30.16R
6HR MIN TEMP:  70; 6HR MAX TEMP:  80;

PINE BELT      CLEAR     65  61  87 NE3       30.18R
6HR MIN TEMP:  65; 6HR MAX TEMP:  80;

$$

MSZ080>082-200100-
COASTAL MISSISSIPPI

CITY           SKY/WX    TMP DP  RH WIND       PRES   REMARKS
BAY ST LOUIS   CLEAR     73  66  78 CALM      30.14S
BILOXI         CLEAR     74  65  74 E5        30.14R
6HR MIN TEMP:  74; 6HR MAX TEMP:  83;

PASCAGOULA     CLEAR     66  62  87 CALM      30.14R
6HR MIN TEMP:  66; 6HR MAX TEMP:  84;

GULFPORT       PTCLDY    73  67  81 CALM      30.13S
6HR MIN TEMP:  72; 6HR MAX TEMP:  82;

$$

LAZ007>009-015>016-023>026-200100-
NORTHEAST LOUISIANA

CITY           SKY/WX    TMP DP  RH WIND       PRES   REMARKS
BASTROP        FAIR      63  57  82 CALM      30.16R
TALLULAH/VBURG CLEAR     63  60  90 CALM      30.16R
6HR MIN TEMP:  63; 6HR MAX TEMP:  79;

VIDALIA          N/A    N/A N/A N/A MISG      30.14R
$$




USA.gov is the U.S. government's official web portal to all federal, state and local government web resources and services.